Погода в Экимчане

Россия / Амурская область     53°04′07″N   132°56′37″E
темп.,
°C
ветер,
м/с
пор.,
м/с
влажн.,
%
обл.,
%
осадки,
мм/ч
давл.,
гПа
погр.,
м
27 ноября, сб
сб2700:00−19вюв1110097 0.0 10299
03:00−19вюв1110099 0.1 10309
06:00−19юв1110099 0.1 103110
09:00−16ююз119999 0.1 103133
12:00−10зюз128962 0.0 1029190
15:00−11зюз009427 0.0 102910
18:00−16вюв119861 0.0 103110
21:00−18вюв1199100 0.0 10329
28 ноября, вс
вс2800:00−18вюв119872 0.0 103210
03:00−15юв1194100 0.0 103020
06:00−13юв1191100 0.0 102730
09:00−11в1187100 0.1 102678
12:00−10ююз0192100 0.5 1023235
15:00−10зсз1195100 1.5 1021209
18:00−11сз0197100 0.7 102141
21:00−11зсз1197100 1.3 102023
29 ноября, пн
пн2900:00−11зсз1197100 0.5 101940
03:00−12ссз1296100 1.1 1018135
06:00−13сз1296100 0.6 1019163
09:00−14сз1296100 0.9 102199
12:00−13зсз128177 0.1 1022467
15:00−13зюз1192100 0.1 102313
18:00−20вюв11100100 0.0 10269
21:00−20ююв11100100 0.1 10289
30 ноября, вт
вт3000:00−22ююв11100100 0.1 102910
03:00−24вюв1110099 0.1 10299
06:00−26в1110093 0.0 10299
09:00−25вюв119957 0.1 102823
12:00−17юз118832 0.0 1024224
15:00−17з11947 0.0 10229
18:00−26всв1110024 0.0 10259
21:00−28всв2110029 0.0 102512
1 декабря, ср
ср100:00−28всв2199100 0.0 102418
03:00−28всв2198100 0.0 102231
06:00−26всв2297100 0.0 101952
09:00−23св1396100 0.0 101796
12:00−17ссв2482100 0.0 1012385
15:00−17с3592100 0.1 1009301
18:00−21с3595100 0.0 1009137
21:00−24с2497100 0.0 100868